#timestamp,LO_Frequency,Hit,StdDev 
1505800815.6,286046988.7,Y
1505800835.5,286046995.2,P
1505800855.3,286046995.1,P
1505800875.1,286046995.7,P
1505800895.9,286046994.6,Y
1505800915.7,286047004.1,P
1505800935.5,286047006.0,N
1505800955.3,286047008.4,N
1505800975.2,286047008.0,N
1505800995.0,286047008.4,N
1505800995.9,286047008.4,N
1505801015.7,286047006.6,N
1505801035.6,286047004.5,N
1505801055.4,286047008.6,N
1505801075.2,286047013.5,Y
1505801095.1,286047005.6,P
1505801096.0,286047005.6,P
1505801115.8,286047000.2,N
1505801135.6,286047003.0,N
1505801155.5,286047003.9,N
1505801175.3,286047004.9,N
1505801195.1,286047001.9,N
1505801215.9,286047001.5,N
1505801235.7,286047003.8,N
1505801255.5,286047005.3,N
1505801275.4,286047001.3,N
1505801295.2,286047004.4,N
1505801315.0,286047003.1,N
1505801315.9,286047003.1,N
1505801335.8,286047004.5,N
1505801355.6,286047009.1,Y
1505801375.4,286047003.3,P
1505801395.3,286047001.4,P
1505801415.1,286047002.1,N
1505801416.0,286047002.1,N
1505801435.8,286047003.9,Y
1505801455.7,286047002.3,P
1505801475.5,286047012.4,P
1505801495.3,286047019.8,P
1505801515.2,286047025.8,Y
1505801535.9,286047019.7,P
1505801555.7,286047018.9,P
1505801575.6,286047024.6,P
1505801595.4,286047028.9,Y
1505801615.2,286047016.8,P
1505801635.1,286047014.9,P
1505801636.0,286047014.9,P
1505801655.8,286047015.4,Y
1505801675.6,286046999.7,P
1505801695.5,286047007.4,N
1505801715.3,286047005.3,N
1505801735.1,286047005.1,N
1505801755.9,286047009.1,N
1505801775.7,286047009.1,N
1505801795.5,286047003.6,N
1505801815.3,286047001.7,N
1505801835.2,286047003.0,N
1505801855.0,286047004.4,N
1505801855.9,286047004.4,N
1505801875.7,286047001.8,N
1505801895.6,286047002.2,N
1505801915.4,286047004.3,N
1505801935.2,286047005.5,N
1505801955.1,286047004.1,N
1505801956.0,286047004.1,N
1505801975.8,286047004.5,N
1505801995.6,286047003.6,N
1505802015.5,286047005.1,N
1505802035.3,286047007.2,N
1505802055.1,286047003.1,N
1505802075.9,286047005.6,N
1505802095.7,286047000.6,N
1505802115.5,286047002.5,N
1505802135.3,286047006.8,N
1505802155.2,286047008.9,N
1505802175.0,286047009.0,N
1505802175.9,286047009.0,N
1505802195.7,286047005.7,N
1505802215.6,286047005.0,N
1505802235.4,286047005.3,N
1505802255.2,286047003.6,N
1505802275.1,286047006.6,N
1505802276.0,286047006.6,N
1505802295.8,286047006.7,N
1505802315.6,286047007.5,Y
1505802335.5,286047002.8,P
1505802355.3,286047000.5,N
1505802375.1,286047005.9,P
1505802395.9,286047003.9,N
1505802415.7,286047000.2,N
1505802435.5,286047000.7,N
1505802455.4,286047002.8,N
1505802475.2,286047000.9,N
1505802495.0,286046998.7,N
1505802495.9,286046998.7,N
1505802515.8,286046998.2,N
1505802535.6,286046998.5,N
1505802555.4,286046997.5,N
1505802575.3,286046995.5,N
1505802595.1,286046999.4,N
1505802596.0,286046999.4,N
1505802615.8,286046999.2,N
1505802635.6,286046995.4,N
1505802655.5,286046997.1,N
1505802675.3,286046993.6,N
1505802695.1,286046993.7,N
1505802715.9,286046998.9,N
1505802735.7,286046998.8,N
1505802755.5,286047003.2,N
1505802775.4,286047002.5,N
1505802795.2,286046996.8,N
1505802815.0,286046998.8,N
1505802815.9,286046998.8,N
1505802835.8,286046998.4,N
1505802855.6,286046996.5,N
1505802875.4,286046997.0,N
1505802895.3,286046999.3,N
1505802915.1,286046996.7,N
1505802916.0,286046996.7,N
1505802935.8,286046997.9,N
1505802955.6,286046999.6,N
1505802975.5,286047000.2,N
1505802995.3,286046998.4,N
1505803015.1,286046999.9,N
1505803035.9,286047000.9,N
1505803055.7,286047000.9,N
1505803075.5,286046998.2,N
1505803095.4,286046998.5,N
1505803115.2,286047002.4,N
1505803135.0,286047001.7,N
1505803135.9,286047001.7,N
1505803155.8,286047001.0,N
1505803175.6,286046999.0,N
1505803195.4,286046997.1,N
1505803215.3,286046994.9,N
1505803235.1,286046997.3,N
1505803236.0,286046997.3,N
1505803255.8,286046994.9,N
1505803275.7,286046995.5,N
1505803295.5,286046996.4,N
1505803315.3,286046996.7,N
1505803335.1,286046997.1,N
1505803355.9,286046996.9,N
1505803375.7,286046999.3,N
1505803395.5,286046998.4,N
1505803415.4,286047004.2,N
1505803435.2,286047004.5,N
1505803455.0,286047006.3,N
1505803455.9,286047006.3,N
1505803475.8,286047006.1,N
1505803495.6,286047004.0,N
1505803515.4,286046999.9,N
1505803535.3,286046998.9,N
1505803555.1,286046999.2,N
1505803556.0,286046999.2,N
1505803575.8,286046999.6,N
1505803595.7,286046998.7,N
1505803615.5,286047002.2,N
1505803635.3,286047002.1,N
1505803655.2,286047006.9,N
1505803675.9,286047004.5,N
1505803695.7,286047003.7,N
1505803715.5,286047005.1,N
1505803735.4,286047002.9,N
1505803755.2,286047003.2,N
1505803775.0,286047001.9,N
1505803775.9,286047001.9,N
1505803795.8,286046998.2,N
1505803815.6,286047000.2,N
1505803835.4,286046998.4,N
1505803855.3,286047003.3,N
1505803875.1,286047000.0,N
1505803895.8,286047000.2,N
1505803915.7,286046998.2,N
1505803935.5,286046996.9,N
1505803955.3,286046999.0,N
1505803975.2,286047000.0,N
1505803995.9,286047000.4,N
1505804015.7,286047000.5,N
1505804035.6,286046998.8,N
1505804055.4,286046997.1,N
1505804075.2,286046999.4,N
1505804095.0,286046997.8,N
1505804096.0,286046997.8,N
1505804115.8,286046994.9,N
1505804135.6,286047001.1,N
1505804155.4,286047002.6,N
1505804175.3,286047000.6,N
1505804195.1,286047000.5,N
1505804215.8,286046999.1,N
1505804235.7,286046993.7,N
1505804255.5,286046994.7,N
1505804275.3,286046995.6,N
1505804295.2,286046995.4,N
1505804315.9,286046997.5,N
1505804335.7,286046994.9,N
1505804355.6,286046994.6,N
1505804375.4,286046997.1,N
1505804395.2,286046997.9,N
